Regional Weather Roundup
Issued by NWS

Home | Current Version | Previous Version | Graphics & Text | Print | Product List | Glossary Off
Versions: 1 2 3 4 5 6 7 8 9 10 11 12 13 14 15 16 17 18 19 20 21 22 23 24 25 26 27 28 29 30 31 32 33 34 35 36 37 38 39 40 41 42 43 44 45 46 47 48 49 50

000
ASUS43 KTOP 171108
RWRKS

WEATHER ROUNDUP FOR KANSAS
NATIONAL WEATHER SERVICE GOODLAND KS
500 AM CST SAT FEB 17 2018

NOTE:  "FAIR" INDICATES FEW OR NO CLOUDS BELOW 12,000 FEET WITH NO
SIGNIFICANT WEATHER AND/OR OBSTRUCTIONS TO VISIBILITY.

KSZ001>006-013>018-027>032-041>047-171200-
NORTHWEST KANSAS

CITY           SKY/WX    TMP DP  RH WIND       PRES   REMARKS
GOODLAND       CLEAR     28  21  75 W13       29.92R WCI  17
HILL CITY      CLOUDY    22  16  78 SW5       29.91R
RUSSELL        CLOUDY    30  18  60 SW12      29.90R WCI  20
$$

KSZ061>065-074>080-084>089-171200-
SOUTHWEST KANSAS

CITY           SKY/WX    TMP DP  RH WIND       PRES   REMARKS
DODGE CITY     CLOUDY    33  23  66 SW12      29.88R WCI  24
ELKHART        MOCLDY    42  33  70 NW10G21   29.92R
GARDEN CITY    CLOUDY    32  23  69 NW13      29.90R WCI  22
GREAT BEND     PTCLDY    29  19  66 S7        29.91R
LIBERAL        CLOUDY    36  32  85 W10       29.91R WCI  28
PRATT          CLOUDY    30  22  71 S9        29.90R
$$

KSZ066>073-081>083-090>101-171200-
SOUTHEAST KANSAS

CITY           SKY/WX    TMP DP  RH WIND       PRES   REMARKS
CHANUTE        LGT RAIN  36  34  92 SE9       29.99F FOG
COFFEYVILLE    RAIN      37  36  96 NW8       30.03S FOG
HUTCHINSON     CLOUDY    33  23  66 S13       29.92F WCI  24
MEDICINE LODGE   N/A     33  28  81 S8        29.92S
NEWTON         CLOUDY    34  26  72 S15       29.93F WCI  24
PARSONS        LGT RAIN  35  35 100 NW3       30.03F
WICHITA INTL   CLOUDY    35  30  82 S12       29.94S WCI  27
WICHITA JABRA  CLOUDY    33  31  92 S10       29.94S WCI  25
WICHITA MCCONL CLOUDY    34  30  87 S6        29.94
WINFIELD       CLOUDY    34  34 100 S12       29.96F WCI  25
$$

KSZ007>012-019>026-033>040-048>060-102>105-171200-
NORTHEAST KANSAS

CITY           SKY/WX    TMP DP  RH WIND       PRES   REMARKS
CONCORDIA      PTCLDY    27  17  66 SW5       29.91F
EMPORIA        CLOUDY    33  25  72 S12       29.95F WCI  24
LAWRENCE       CLOUDY    31  16  54 E6        29.98F
MANHATTAN      CLOUDY    36  21  54 S5        29.94F
MARYSVILLE     CLOUDY    32  19  59 S7        29.92F
OLATHE IND     CLOUDY    32  17  54 SE10      29.99F WCI  24
OLATHE EXE     CLOUDY    31  18  58 SE8       29.98F
SALINA         CLOUDY    28  18  66 S5        29.93S
TOPEKA BILLARD CLOUDY    33  17  51 SE6       29.97F
TOPEKA FORBES  CLOUDY    32  17  54 SE7       29.95F
$$




USA.gov is the U.S. government's official web portal to all federal, state and local government web resources and services.